Temp
-12 -11 -11 -11 -11 -11 -11 -11 -12 -12 -12 -12 -12 -12 -11 -11 -11 -11 -11 -11 -12 -14 -15 -17 -17 -17 -18 -18 -19 -20 -20 -20 -19 -19 -19 -19 -19 -19 -19 -18 -18 -16 -16 -16 -16 -16 -16
-12 -11 -11 -11 -12 -12 -12 -11 -12 -12 -12 -12 -12 -12 -11 -11 -11 -11 -12 -12 -13 -14 -16 -17 -18 -18 -18 -18 -19 -20 -20 -20 -19 -19 -19 -19 -19 -19 -19 -18 -18 -17 -18 -18 -17 -17 -17
-12 -11 -11 -12 -12 -12 -12 -12 -12 -12 -12 -12 -12 -11 -11 -11 -12 -12 -12 -13 -14 -15 -16 -18 -19 -19 -19 -19 -19 -20 -20 -20 -19 -19 -19 -19 -18 -18 -18 -19 -19 -18 -18 -18 -18 -17 -17
-12 -12 -12 -12 -12 -12 -12 -12 -12 -12 -12 -12 -11 -11 -11 -11 -12 -12 -12 -13 -14 -16 -17 -18 -19 -19 -20 -19 -19 -19 -20 -19 -19 -19 -19 -18 -19 -19 -19 -19 -19 -18 -18 -19 -18 -18 -17
-12 -12 -12 -12 -12 -12 -12 -12 -12 -12 -12 -12 -11 -11 -11 -11 -12 -12 -13 -14 -15 -16 -18 -18 -19 -19 -19 -19 -20 -19 -19 -19 -19 -19 -19 -18 -19 -19 -18 -18 -19 -19 -19 -19 -19 -18 -18
-12 -12 -12 -12 -12 -12 -12 -12 -12 -12 -12 -12 -12 -11 -11 -11 -12 -12 -13 -14 -15 -16 -17 -18 -19 -19 -19 -19 -19 -19 -19 -20 -19 -19 -19 -19 -19 -19 -19 -19 -19 -19 -19 -19 -19 -18 -17
-12 -12 -12 -12 -12 -12 -12 -12 -12 -12 -12 -12 -12 -11 -11 -12 -12 -12 -13 -14 -15 -16 -17 -18 -19 -19 -19 -19 -19 -19 -20 -19 -19 -19 -19 -19 -18 -18 -19 -18 -18 -19 -20 -19 -19 -18 -18
-12 -12 -12 -12 -12 -12 -12 -12 -12 -12 -12 -12 -12 -12 -11 -12 -12 -12 -13 -14 -15 -16 -17 -18 -19 -19 -19 -19 -19 -19 -19 -19 -19 -18 -19 -19 -19 -19 -19 -19 -19 -19 -19 -19 -18 -19 -18
-13 -13 -13 -12 -12 -12 -12 -12 -12 -12 -12 -12 -12 -12 -12 -12 -12 -12 -13 -14 -14 -15 -16 -18 -18 -19 -19 -19 -19 -19 -19 -19 -19 -19 -19 -19 -19 -20 -20 -19 -19 -19 -18 -18 -18 -18 -18
-13 -13 -13 -13 -13 -12 -12 -12 -12 -12 -12 -12 -12 -12 -12 -12 -12 -12 -13 -13 -14 -15 -16 -17 -18 -19 -19 -20 -20 -20 -20 -20 -19 -19 -20 -19 -19 -20 -20 -19 -19 -19 -18 -19 -19 -19 -18
-14 -13 -13 -13 -13 -13 -13 -12 -12 -13 -12 -12 -12 -12 -12 -12 -12 -13 -13 -13 -14 -15 -16 -17 -18 -18 -19 -19 -20 -20 -20 -20 -20 -20 -20 -20 -20 -20 -20 -20 -19 -19 -19 -19 -19 -19 -18
-14 -14 -14 -13 -13 -13 -13 -13 -12 -13 -13 -12 -12 -12 -12 -12 -12 -13 -13 -13 -14 -14 -15 -17 -18 -18 -19 -19 -20 -20 -20 -20 -20 -20 -20 -20 -20 -20 -19 -20 -19 -19 -19 -19 -19 -18 -18
-14 -14 -14 -14 -13 -13 -13 -13 -13 -13 -13 -13 -12 -12 -12 -12 -12 -13 -13 -13 -13 -14 -15 -16 -17 -18 -18 -18 -19 -20 -20 -20 -20 -20 -21 -21 -21 -20 -20 -20 -19 -19 -19 -18 -19 -18 -17
-14 -14 -14 -14 -14 -14 -13 -13 -13 -13 -13 -13 -13 -12 -12 -12 -13 -13 -13 -13 -13 -14 -14 -15 -16 -17 -17 -18 -18 -19 -19 -19 -20 -20 -20 -20 -20 -20 -20 -19 -19 -19 -18 -18 -17 -17 -17
-14 -14 -14 -14 -14 -14 -14 -13 -13 -13 -13 -13 -13 -13 -12 -12 -13 -13 -13 -13 -13 -14 -14 -14 -15 -16 -17 -17 -17 -18 -18 -19 -20 -20 -20 -20 -20 -20 -19 -19 -18 -18 -17 -17 -16 -16 -16
-14 -14 -14 -14 -14 -14 -14 -14 -13 -13 -13 -13 -13 -13 -13 -13 -13 -13 -13 -13 -13 -14 -14 -14 -15 -15 -16 -17 -17 -17 -17 -18 -18 -19 -19 -19 -19 -18 -18 -18 -18 -17 -16 -16 -15 -15 -15
-15 -14 -14 -14 -14 -14 -14 -14 -14 -14 -14 -13 -13 -13 -13 -13 -13 -13 -13 -13 -13 -14 -14 -14 -14 -15 -15 -15 -16 -17 -17 -17 -17 -18 -18 -19 -18 -18 -18 -17 -17 -16 -16 -16 -15 -15 -14
-15 -15 -14 -14 -14 -14 -14 -14 -14 -14 -14 -14 -14 -13 -13 -13 -13 -13 -13 -13 -13 -13 -14 -14 -14 -14 -15 -15 -15 -16 -16 -16 -16 -16 -17 -17 -18 -18 -18 -17 -17 -16 -16 -16 -16 -15 -15
-15 -15 -15 -14 -14 -14 -14 -14 -14 -14 -14 -14 -14 -14 -14 -13 -13 -13 -13 -13 -13 -13 -13 -14 -14 -14 -14 -14 -15 -15 -15 -15 -15 -15 -15 -16 -16 -16 -16 -16 -16 -16 -16 -16 -16 -16 -15
-15 -15 -15 -15 -15 -15 -15 -15 -15 -15 -15 -15 -15 -14 -14 -14 -14 -14 -14 -13 -13 -13 -13 -13 -14 -14 -14 -14 -15 -15 -15 -15 -15 -15 -15 -15 -15 -15 -15 -15 -16 -16 -16 -16 -16 -16 -15
-16 -15 -15 -15 -15 -15 -15 -15 -15 -15 -15 -15 -15 -14 -14 -14 -14 -14 -14 -14 -13 -13 -13 -13 -13 -13 -14 -14 -14 -14 -14 -15 -15 -15 -15 -15 -15 -15 -15 -15 -15 -15 -14 -14 -14 -14 -14
-16 -16 -16 -15 -15 -15 -15 -15 -15 -15 -15 -15 -15 -15 -14 -14 -14 -14 -14 -14 -14 -13 -13 -13 -13 -13 -13 -13 -14 -14 -14 -14 -15 -14 -14 -14 -14 -14 -14 -14 -14 -14 -14 -14 -14 -13 -13
-17 -16 -16 -16 -16 -16 -16 -16 -15 -15 -15 -15 -15 -15 -15 -14 -14 -14 -14 -14 -14 -13 -13 -13 -13 -13 -13 -13 -13 -13 -13 -13 -14 -14 -14 -14 -14 -14 -14 -14 -14 -14 -14 -14 -14 -14 -14
-18 -17 -16 -16 -16 -16 -16 -16 -16 -15 -16 -15 -15 -15 -15 -15 -14 -14 -14 -14 -14 -14 -14 -13 -13 -13 -13 -13 -13 -14 -13 -13 -13 -13 -13 -13 -13 -13 -13 -13 -13 -14 -14 -14 -14 -13 -13
-17 -18 -17 -17 -17 -16 -16 -16 -16 -15 -16 -16 -16 -16 -15 -15 -15 -15 -14 -14 -14 -14 -14 -14 -14 -14 -13 -13 -13 -13 -13 -14 -13 -13 -13 -13 -13 -13 -12 -13 -13 -13 -13 -13 -13 -13 -13
-19 -18 -18 -17 -17 -17 -17 -16 -16 -16 -16 -16 -15 -15 -15 -15 -15 -15 -15 -14 -14 -14 -14 -14 -14 -14 -14 -14 -14 -14 -13 -13 -13 -13 -13 -13 -13 -13 -13 -13 -12 -13 -13 -13 -13 -13 -13
-18 -17 -17 -17 -17 -17 -17 -17 -16 -16 -16 -16 -15 -15 -16 -16 -15 -15 -15 -14 -14 -14 -14 -14 -14 -14 -14 -14 -14 -14 -14 -14 -14 -14 -14 -13 -13 -13 -13 -13 -13 -13 -13 -13 -13 -13 -12
-18 -18 -18 -18 -17 -17 -17 -16 -16 -16 -16 -16 -16 -16 -16 -16 -16 -16 -15 -15 -15 -14 -14 -14 -14 -14 -14 -14 -14 -14 -13 -14 -14 -14 -14 -14 -14 -14 -14 -14 -13 -13 -13 -13 -13 -13 -13
-18 -18 -17 -17 -17 -17 -17 -17 -18 -17 -17 -17 -16 -16 -16 -16 -16 -16 -16 -15 -15 -15 -14 -14 -15 -15 -15 -15 -14 -14 -14 -14 -14 -14 -15 -14 -14 -15 -15 -14 -14 -14 -13 -13 -13 -14 -14
Height
5830 5828 5826 5824 5820 5817 5813 5809 5805 5801 5797 5792 5787 5782 5778 5773 5767 5760 5751 5740 5729 5717 5704 5691 5683 5677 5671 5666 5662 5657 5653 5652 5653 5654 5655 5657 5659 5664 5668 5675 5682 5694 5704 5711 5718 5732 5741
5829 5828 5826 5823 5820 5816 5813 5809 5804 5800 5796 5791 5786 5781 5776 5771 5764 5757 5749 5737 5725 5713 5700 5688 5681 5676 5671 5667 5662 5659 5656 5654 5653 5653 5654 5656 5659 5662 5667 5673 5681 5689 5695 5704 5714 5727 5734
5828 5827 5825 5823 5819 5816 5813 5809 5804 5800 5795 5790 5785 5780 5775 5770 5763 5756 5747 5735 5722 5710 5698 5688 5680 5675 5670 5667 5662 5659 5657 5656 5654 5653 5654 5655 5656 5661 5667 5671 5678 5684 5689 5697 5709 5721 5729
5827 5826 5824 5822 5819 5815 5812 5808 5804 5800 5795 5790 5785 5780 5775 5770 5763 5755 5745 5734 5722 5709 5697 5688 5679 5674 5670 5666 5662 5660 5659 5657 5655 5654 5654 5655 5657 5662 5666 5669 5677 5682 5688 5695 5705 5716 5728
5826 5824 5823 5821 5818 5815 5812 5808 5803 5800 5795 5790 5785 5780 5775 5770 5763 5754 5744 5734 5723 5711 5700 5688 5678 5673 5670 5667 5663 5660 5659 5658 5656 5656 5657 5658 5661 5664 5668 5673 5677 5682 5686 5693 5704 5713 5726
5824 5823 5821 5819 5817 5814 5811 5808 5803 5799 5795 5791 5786 5781 5776 5770 5763 5755 5745 5735 5725 5714 5703 5692 5681 5677 5672 5669 5666 5663 5661 5659 5657 5660 5661 5664 5665 5668 5671 5675 5680 5683 5686 5694 5704 5714 5724
5822 5820 5819 5818 5816 5813 5810 5807 5803 5799 5795 5791 5786 5782 5776 5770 5763 5755 5747 5738 5729 5719 5706 5696 5687 5681 5676 5672 5668 5666 5664 5662 5662 5663 5666 5667 5669 5671 5673 5676 5679 5683 5688 5697 5704 5713 5721
5820 5818 5817 5815 5814 5811 5809 5806 5802 5799 5795 5792 5787 5783 5778 5772 5765 5757 5749 5740 5731 5722 5710 5699 5692 5685 5679 5675 5672 5669 5668 5668 5666 5667 5667 5670 5672 5675 5675 5678 5682 5685 5690 5699 5706 5713 5721
5817 5816 5814 5813 5811 5810 5807 5805 5802 5798 5795 5792 5788 5784 5779 5774 5766 5760 5751 5743 5733 5724 5716 5705 5696 5688 5682 5678 5675 5673 5672 5671 5670 5669 5671 5672 5674 5676 5677 5680 5684 5689 5693 5700 5708 5713 5719
5814 5813 5811 5810 5809 5807 5806 5803 5801 5798 5795 5793 5789 5785 5780 5775 5770 5762 5754 5745 5736 5728 5718 5710 5702 5695 5688 5682 5678 5676 5675 5675 5674 5674 5674 5675 5677 5679 5682 5684 5688 5691 5694 5701 5707 5712 5718
5812 5811 5809 5808 5806 5805 5804 5802 5800 5797 5794 5792 5790 5786 5781 5776 5771 5765 5758 5749 5740 5732 5724 5716 5708 5700 5694 5688 5683 5678 5677 5677 5677 5678 5678 5677 5677 5681 5685 5688 5691 5694 5699 5704 5708 5714 5720
5809 5809 5807 5806 5804 5802 5801 5801 5799 5796 5793 5791 5789 5786 5782 5778 5773 5767 5760 5753 5746 5739 5730 5723 5716 5709 5702 5696 5690 5684 5682 5681 5681 5681 5681 5680 5683 5686 5689 5692 5696 5699 5703 5707 5711 5717 5722
5806 5806 5805 5804 5802 5800 5799 5798 5797 5795 5793 5790 5787 5785 5783 5779 5775 5769 5763 5757 5751 5741 5735 5729 5722 5716 5711 5703 5698 5693 5689 5686 5686 5686 5685 5686 5688 5690 5694 5698 5701 5704 5706 5711 5715 5719 5725
5802 5802 5802 5801 5800 5798 5797 5795 5794 5793 5792 5789 5787 5784 5782 5780 5776 5771 5765 5760 5754 5747 5740 5733 5727 5723 5718 5711 5707 5703 5699 5695 5693 5691 5691 5691 5694 5696 5699 5703 5707 5709 5712 5716 5721 5725 5729
5797 5798 5798 5798 5797 5796 5794 5793 5792 5791 5790 5788 5785 5783 5781 5779 5776 5772 5768 5762 5756 5752 5746 5740 5734 5729 5724 5719 5715 5711 5708 5705 5701 5699 5699 5698 5699 5701 5704 5707 5710 5714 5718 5722 5726 5730 5733
5792 5793 5794 5794 5794 5793 5792 5790 5789 5788 5787 5786 5784 5782 5780 5778 5776 5773 5770 5765 5760 5754 5749 5745 5741 5735 5729 5725 5722 5718 5716 5713 5711 5709 5707 5706 5706 5706 5709 5712 5714 5717 5722 5727 5731 5733 5736
5785 5786 5788 5789 5789 5789 5788 5787 5786 5784 5784 5783 5782 5781 5778 5777 5775 5773 5770 5766 5762 5758 5753 5749 5745 5741 5736 5731 5728 5725 5723 5721 5719 5718 5716 5714 5713 5714 5714 5715 5718 5722 5725 5728 5730 5733 5735
5777 5779 5780 5782 5783 5783 5783 5783 5782 5780 5780 5779 5779 5778 5777 5774 5774 5771 5770 5767 5764 5760 5757 5753 5748 5744 5741 5738 5734 5730 5728 5726 5724 5724 5724 5723 5722 5722 5722 5721 5723 5725 5727 5729 5732 5734 5735
5768 5770 5772 5774 5775 5776 5777 5777 5778 5776 5775 5775 5774 5774 5773 5772 5770 5768 5768 5766 5764 5761 5758 5755 5752 5749 5744 5741 5739 5736 5734 5732 5730 5729 5728 5729 5729 5729 5729 5730 5730 5731 5732 5733 5734 5735 5736
5758 5761 5763 5765 5766 5768 5769 5769 5770 5771 5770 5770 5770 5769 5769 5767 5767 5765 5764 5764 5763 5761 5758 5755 5753 5750 5747 5744 5741 5740 5738 5737 5734 5733 5734 5733 5733 5733 5734 5735 5735 5735 5736 5736 5736 5736 5736
5747 5750 5752 5755 5756 5758 5760 5761 5762 5762 5763 5763 5763 5764 5763 5762 5761 5761 5760 5760 5759 5758 5757 5755 5753 5751 5749 5745 5743 5741 5740 5739 5738 5736 5735 5735 5735 5735 5735 5735 5735 5735 5735 5735 5736 5736 5737
5734 5738 5741 5744 5746 5749 5750 5751 5752 5753 5753 5754 5754 5755 5757 5756 5755 5756 5754 5754 5754 5754 5754 5753 5751 5750 5749 5747 5745 5743 5741 5739 5738 5737 5737 5736 5736 5735 5735 5735 5735 5734 5734 5734 5734 5734 5735
5720 5725 5729 5732 5735 5737 5740 5742 5744 5744 5744 5743 5744 5745 5747 5748 5747 5749 5748 5747 5747 5748 5748 5748 5747 5746 5745 5745 5744 5743 5741 5740 5738 5737 5736 5735 5735 5734 5734 5734 5733 5734 5732 5731 5731 5730 5731
5707 5712 5716 5719 5723 5726 5728 5730 5733 5734 5735 5734 5733 5734 5735 5736 5737 5738 5739 5739 5739 5740 5741 5741 5741 5741 5741 5740 5739 5739 5739 5738 5736 5735 5734 5733 5732 5731 5731 5731 5732 5731 5729 5727 5727 5726 5724
5692 5697 5702 5706 5710 5714 5716 5718 5720 5722 5723 5723 5722 5722 5722 5724 5726 5728 5730 5730 5730 5731 5733 5734 5734 5735 5734 5734 5734 5734 5733 5733 5732 5731 5730 5729 5728 5727 5726 5726 5727 5726 5724 5722 5721 5720 5716
5677 5681 5688 5693 5697 5700 5702 5705 5707 5709 5711 5711 5710 5710 5712 5713 5714 5716 5719 5721 5721 5722 5725 5725 5727 5728 5727 5727 5726 5726 5727 5727 5727 5726 5725 5723 5723 5722 5720 5719 5718 5718 5717 5715 5714 5713 5710
5663 5667 5672 5677 5681 5685 5689 5691 5693 5697 5699 5699 5700 5701 5702 5703 5703 5704 5708 5711 5712 5713 5715 5716 5719 5719 5719 5720 5719 5719 5719 5719 5719 5720 5719 5717 5715 5715 5712 5710 5711 5709 5705 5703 5702 5703 5698
5646 5652 5657 5661 5666 5670 5673 5676 5678 5683 5685 5687 5690 5690 5692 5694 5694 5696 5699 5701 5702 5703 5706 5708 5708 5709 5710 5711 5711 5709 5709 5710 5710 5710 5709 5708 5707 5706 5705 5704 5703 5699 5696 5695 5692 5689 5688
5631 5636 5642 5647 5651 5656 5658 5663 5666 5669 5672 5676 5678 5681 5682 5685 5688 5687 5690 5692 5693 5694 5695 5697 5699 5699 5698 5698 5698 5697 5698 5698 5700 5699 5699 5697 5697 5696 5696 5694 5691 5687 5684 5681 5679 5678 5675
Wind_Speed
6 9 13 16 21 23 24 24 23 25 27 29 29 25 22 25 30 35 40 44 48 52 55 46 31 27 21 19 16 8 10 4 6 4 7 14 21 21 22 31 32 37 43 51 54 52 49
6 9 13 16 20 24 25 24 24 25 27 29 30 28 24 27 33 37 42 47 50 53 53 41 29 25 17 17 13 7 5 1 8 5 8 12 15 20 25 25 27 39 41 42 48 50 49
7 9 12 16 20 23 25 25 24 25 27 28 30 29 28 30 34 39 43 47 50 53 51 40 30 24 20 14 11 5 6 2 6 4 2 5 14 18 20 24 27 31 41 44 47 49 51
9 11 12 15 18 22 25 26 24 25 27 27 29 30 30 30 34 38 43 46 48 51 48 42 31 23 18 16 8 6 5 4 6 4 2 7 8 10 16 24 22 26 29 40 46 46 51
12 13 14 15 17 20 23 25 24 24 26 27 29 30 29 30 33 37 41 44 45 48 45 43 33 19 17 14 13 9 6 3 6 4 5 7 3 15 21 21 28 27 31 39 44 47 50
13 15 15 16 16 18 21 23 23 24 25 26 27 28 28 29 32 36 40 42 43 45 43 40 36 26 19 17 15 12 8 4 3 7 10 7 10 14 15 16 20 24 27 38 40 44 45
15 15 15 15 16 16 20 22 22 23 24 24 26 27 28 30 32 35 38 41 40 44 42 40 36 29 24 18 15 10 9 9 9 10 9 10 14 9 11 19 23 16 20 31 39 47 45
16 16 15 14 16 15 17 20 19 21 23 23 24 26 28 30 33 36 38 41 39 42 41 40 38 33 21 19 18 14 11 10 7 6 6 10 8 6 10 13 19 18 23 27 32 37 40
15 14 14 14 15 15 14 18 19 18 20 21 21 24 26 30 33 36 39 41 41 40 40 40 41 39 33 23 14 15 11 13 11 13 9 10 8 11 14 14 18 19 22 25 24 32 37
14 14 13 14 15 15 14 15 18 16 17 18 20 22 25 28 31 35 39 40 42 40 43 42 40 39 36 30 19 12 6 6 6 6 8 7 6 13 19 11 15 20 23 22 21 29 35
12 13 14 15 15 15 15 14 16 16 16 17 18 20 22 26 28 32 36 40 41 39 40 41 38 38 36 35 30 20 11 7 8 4 5 2 15 20 19 18 20 16 17 19 18 25 29
11 12 14 16 16 15 15 13 14 16 15 16 18 18 20 22 25 28 32 37 39 40 37 36 36 35 34 33 30 26 15 11 9 8 8 14 16 23 20 16 19 14 19 21 22 23 23
14 13 14 16 17 17 16 15 13 16 16 15 16 17 18 20 22 24 29 33 37 40 40 36 33 33 32 34 30 25 20 16 12 13 15 14 16 18 19 19 18 19 22 21 20 20 19
18 17 16 16 17 18 17 17 14 14 17 16 15 15 17 17 18 21 24 29 33 37 38 35 33 29 29 31 30 26 23 21 18 17 19 24 23 20 20 21 20 21 18 19 15 15 18
22 21 20 18 17 18 18 17 17 15 15 17 16 15 15 15 16 18 20 23 28 31 35 35 31 29 27 28 28 26 23 19 17 17 19 21 24 24 27 25 24 21 17 16 16 18 23
27 24 23 22 21 19 18 18 17 18 17 17 16 16 14 14 15 16 17 19 22 25 29 31 32 32 28 25 25 24 23 19 15 15 18 23 26 26 25 23 24 22 21 22 23 25 23
32 29 27 25 24 23 21 20 19 17 19 19 18 17 16 16 16 16 17 17 18 20 23 25 27 29 28 27 23 22 22 22 20 16 11 12 17 21 23 25 24 25 26 24 24 25 23
36 34 32 30 28 26 25 23 22 20 19 20 21 19 19 18 18 18 17 16 15 17 18 20 21 23 25 25 23 20 18 18 18 17 16 11 6 7 14 18 19 21 22 22 23 20 22
42 39 36 34 32 31 29 27 24 25 22 22 23 23 22 21 21 19 19 17 16 14 15 15 17 18 19 21 20 18 18 16 14 13 12 9 6 3 6 10 12 12 14 17 15 16 15
46 43 41 40 38 35 33 30 30 28 27 26 25 26 25 24 24 22 20 20 18 16 12 11 12 13 13 14 15 16 16 14 12 11 9 6 4 5 6 2 4 6 6 8 6 6 11
51 47 46 44 42 42 39 39 37 35 34 34 30 28 29 27 25 25 24 21 20 18 15 11 10 10 10 11 11 11 11 10 11 10 7 6 5 3 3 4 5 7 6 5 7 9 11
55 52 51 49 47 49 49 47 43 40 42 36 36 33 31 33 32 29 27 25 24 21 19 15 14 10 10 10 11 11 10 10 9 8 5 4 2 3 2 1 1 3 2 4 7 10 12
59 56 55 53 51 50 50 52 47 45 42 41 40 39 37 35 35 33 32 29 27 26 22 20 17 15 12 11 12 12 12 11 12 11 11 10 8 7 8 6 5 6 9 10 11 13 15
60 61 59 57 57 57 57 55 54 48 45 43 44 45 42 41 38 34 33 30 28 31 28 24 22 20 19 18 18 18 17 15 16 15 14 14 15 15 14 13 13 14 15 16 17 20 22
66 63 63 64 60 60 59 58 54 50 47 47 47 46 46 44 42 39 35 33 30 30 33 30 28 25 25 24 24 23 23 23 21 19 20 20 19 19 18 19 19 17 20 22 23 24 28
69 69 69 66 65 64 64 62 59 49 47 49 46 46 45 41 40 39 37 35 32 30 33 35 33 30 29 27 27 26 27 26 26 24 24 25 25 25 26 26 25 25 26 28 29 30 32
73 72 64 68 64 63 63 60 58 53 49 49 45 43 39 35 34 33 34 34 33 32 32 34 35 35 34 33 33 33 32 31 30 28 28 29 30 31 32 33 32 33 36 37 38 39 41
64 63 63 61 60 60 60 57 55 54 49 46 43 38 34 29 29 30 33 34 34 34 34 34 36 37 39 39 39 39 40 38 36 35 33 34 36 34 36 38 38 39 41 42 43 43 43
54 55 52 55 53 49 48 46 39 45 44 44 41 38 35 32 31 32 33 36 36 36 37 38 38 40 41 42 44 45 44 43 39 39 37 40 39 39 39 39 40 43 47 49 49 49 51
Wind_Direction
10 6 2 360 3 6 4 359 357 355 354 357 355 351 346 342 341 344 344 343 343 345 344 347 341 340 349 349 340 334 327 222 260 247 249 207 221 208 210 215 212 214 217 219 218 212 213
352 353 354 354 358 2 2 359 355 355 354 358 358 356 350 346 346 347 349 350 349 349 351 353 346 351 347 351 347 337 349 280 231 272 221 212 217 222 207 200 202 207 208 208 209 205 206
334 339 343 349 354 358 359 358 354 356 354 0 2 360 355 351 350 351 355 355 354 353 355 360 351 346 353 359 4 3 353 315 229 262 236 208 204 190 196 216 200 205 207 211 209 200 203
320 327 334 340 346 354 356 358 354 354 355 359 1 1 359 355 354 354 357 358 358 357 357 360 351 350 348 2 356 344 359 307 271 246 172 116 138 183 220 206 187 179 201 204 208 200 202
314 320 325 329 336 348 352 355 356 355 355 357 1 3 2 359 359 357 358 360 2 1 0 2 5 5 356 5 13 8 16 331 281 199 166 141 233 174 161 169 205 199 209 199 200 194 198
309 316 320 319 326 339 347 352 356 356 356 358 3 7 5 3 2 2 1 3 4 5 5 11 19 22 27 33 33 32 65 74 169 142 162 158 132 177 187 189 201 202 192 192 193 191 193
304 310 317 317 316 329 339 348 356 356 358 3 7 10 8 8 9 8 6 7 8 9 11 17 20 21 31 27 35 33 43 100 113 137 130 167 182 173 157 191 189 188 184 191 190 192 194
305 311 313 310 307 317 331 343 353 355 357 4 10 12 11 12 14 13 11 12 12 14 16 21 22 22 20 29 33 49 75 64 56 113 93 123 146 153 140 167 190 179 180 189 191 190 198
305 314 317 308 301 306 322 336 346 355 352 1 7 12 13 12 16 16 16 16 16 16 21 24 22 22 25 28 30 44 69 65 69 99 121 122 127 140 160 176 170 181 184 180 186 187 191
309 317 321 310 303 299 309 330 341 349 349 350 358 6 11 11 17 17 20 20 19 20 24 26 26 25 25 29 33 31 29 52 90 80 66 123 138 159 166 155 163 173 174 164 175 184 190
304 314 319 316 307 299 302 320 334 344 348 343 344 355 6 10 16 19 20 23 23 23 25 26 26 24 24 24 29 38 51 59 108 98 36 68 147 157 146 156 142 166 167 167 170 183 191
292 308 319 319 315 302 297 308 322 336 342 345 343 345 358 4 11 19 21 24 25 29 32 29 29 29 30 28 28 38 52 63 64 49 76 109 118 150 158 136 162 141 145 155 159 176 188
279 294 309 318 320 313 297 298 310 324 337 340 343 343 348 356 2 12 20 24 26 30 34 33 33 32 32 35 32 35 46 69 77 78 92 99 128 132 140 139 137 144 143 148 155 169 181
270 281 294 308 319 319 310 296 302 312 325 336 335 341 342 349 358 6 16 23 26 28 34 37 38 39 37 39 38 44 51 64 78 91 96 107 113 115 123 130 124 122 127 139 136 159 178
267 277 285 296 307 317 318 309 298 303 311 324 336 334 335 340 349 358 6 22 25 29 31 37 42 44 45 46 48 49 53 59 76 93 107 115 120 127 126 124 121 121 120 128 144 165 163
264 270 278 286 297 305 314 314 307 300 301 308 325 333 327 327 332 344 355 10 18 27 31 32 40 45 49 50 52 57 56 58 65 90 112 117 119 122 123 129 130 127 134 145 152 151 142
262 267 271 278 286 295 302 309 307 303 300 299 307 318 324 314 316 327 338 353 6 16 26 32 35 44 48 52 56 57 63 61 55 53 85 120 130 133 139 140 138 145 154 159 155 151 151
259 264 268 273 279 286 294 298 303 300 300 300 299 304 312 319 308 309 320 332 347 0 9 20 30 39 48 53 54 61 66 68 67 61 43 51 75 127 148 158 157 163 167 166 171 172 172
257 261 264 269 273 279 284 290 293 297 296 296 296 299 303 309 313 303 304 313 322 335 351 2 13 23 37 47 55 61 65 71 73 72 76 63 61 112 156 167 171 174 185 188 190 189 181
255 258 261 265 270 275 278 284 287 289 291 293 290 291 294 299 303 304 296 296 304 311 323 340 355 4 16 32 41 53 65 73 78 86 91 96 121 148 155 155 269 263 251 233 239 241 223
254 257 259 262 268 274 277 276 282 284 287 285 284 284 286 289 294 299 299 286 285 293 300 310 326 343 355 4 13 26 33 50 71 81 91 106 128 152 210 235 232 230 237 251 263 264 261
249 254 256 259 263 263 267 273 278 282 284 283 281 278 279 281 286 290 292 287 271 274 282 287 297 308 332 347 357 356 353 1 8 17 33 64 121 137 161 168 221 250 259 275 272 278 280
244 252 255 258 261 264 269 271 274 278 277 279 277 274 273 275 280 285 290 281 273 262 264 271 275 280 285 304 318 335 344 338 332 327 326 323 318 317 318 301 289 288 292 279 277 279 280
248 253 254 256 259 263 266 270 274 274 277 277 282 275 268 268 271 276 285 278 270 262 258 258 262 267 277 284 292 302 312 319 320 318 314 309 305 302 299 294 291 298 291 289 288 289 292
246 249 253 256 258 263 265 269 271 272 272 275 278 277 267 265 266 270 276 277 266 261 257 258 258 262 269 274 282 292 301 306 308 311 310 305 302 299 298 296 295 289 287 287 288 289 290
245 250 252 256 258 260 264 266 271 272 275 276 276 277 270 268 268 265 267 270 262 258 258 259 263 267 271 275 279 285 290 295 298 302 304 303 300 299 299 297 300 297 292 290 292 286 286
254 257 259 259 264 263 266 266 268 267 269 274 274 271 269 270 265 257 259 262 260 258 257 261 264 267 270 273 276 280 282 286 288 291 293 294 294 295 293 293 297 297 296 297 295 293 294
255 255 257 258 259 261 260 264 265 261 266 266 267 266 265 267 266 260 258 255 257 258 259 258 262 265 269 272 275 277 279 280 283 286 289 288 289 288 288 290 290 292 291 291 290 291 294
249 249 251 256 256 254 258 259 252 254 253 255 260 263 262 262 260 259 259 258 257 259 261 262 263 263 265 269 272 276 278 280 282 283 285 286 285 285 285 284 283 282 285 287 289 291 291